Content
SEND FEEDBACK

Daily
Averages
Monthly
Summary
United States of America

ANN ARBOR, MICHIGAN


Home > North America > United States > Michigan
Elevation: 231 meters     Latitude: 42 17N     Longitude: 083 43W

WEATHER
 
SELECT A DAY
Number of Records: 204,337;   Date Range: 1/1/95 - 9/16/14
 
SHARE

PRINT THIS DATA

[ ← Previous Day ]
WEATHER ALMANAC - 3 MARCH, 2013
[ Next Day → ]
[ °F ]   °C
Weather ElementAverageHighLow
Temperature-5.5 °C-1.7 °C (3:53 pm)-11.1 °C (10:53 pm)
Dewpoint-10.6 °C-8.9 °C (1:53 am)-12.8 °C (10:53 pm)
Humidity69.4 %92 % (11:53 pm)49 % (3:53 pm)
Barometer1017.9 hPa1018.6 hPa (1:53 am)1016.3 hPa (12:35 pm)
Wind Speed11.3 km/h20.4 km/h (11:53 am)
Wind Gust33.3 km/h (3:53 pm)
Weather ElementAverage
Visibility15.9 km
Wind DirectionWSW (253.2 °)

Weather ElementTotal
Precipitation---
Heating Degree Days24.8 (Base 18.3)
Averaged from 25 records on 3 March, 2013
WEATHER CONDITIONS BREAKOUT
WIND DIRECTION BREAKOUT
WEATHER BY HOUR - 3 MARCH, 2013
[ °F ]   °C
Local TimeTemperatureDewpointHumidityBarometerVisibilityWind DirectionWind SpeedGust SpeedPrecipitationEventsConditions
1:53 AM-5.6 °C-8.9 °C78 %1018.6 hPa16.1 kmWNW (300°)11.1 km/hOvercast
2:53 AM-5.6 °C-9.4 °C75 %1017.9 hPa16.1 kmNW (310°)11.1 km/hOvercast
3:53 AM-5.6 °C-8.9 °C78 %1017.6 hPa12.9 kmNNW (330°)9.3 km/h0 mmSnowLight Snow
4:53 AM-6.1 °C-9.4 °C78 %1017.6 hPa16.1 kmNW (310°)11.1 km/h0 mmOvercast
5:53 AM-7.2 °C-10 °C81 %1017.9 hPa16.1 kmNW (320°)13 km/hMostly Cloudy
6:53 AM-7.2 °C-10.6 °C77 %1018.3 hPa16.1 kmNNW (340°)11.1 km/hMostly Cloudy
7:42 AM-7 °C-10 °C80 %1016.9 hPa16.1 kmNNW (340°)13 km/hOvercast
7:53 AM-6.7 °C-10 °C78 %1018.6 hPa16.1 kmNNW (340°)11.1 km/hOvercast
8:53 AM-6.1 °C-10.6 °C71 %1018.6 hPa16.1 kmNNW (340°)14.8 km/hOvercast
9:53 AM-5 °C-10.6 °C65 %1018.3 hPa16.1 kmNNW (330°)16.7 km/hMostly Cloudy
10:53 AM-5 °C-10 °C68 %1018.3 hPa16.1 kmWNW (300°)16.7 km/hOvercast
11:53 AM-4.4 °C-10.6 °C62 %1017.9 hPa16.1 kmWNW (290°)20.4 km/hOvercast
12:35 PM-3 °C-11 °C55 %1016.3 hPa16.1 kmWest (280°)18.5 km/h27.8 km/hMostly Cloudy
12:53 PM-3.3 °C-10.6 °C58 %1017.6 hPa16.1 kmWNW (290°)16.7 km/h29.6 km/hMostly Cloudy
1:53 PM-2.2 °C-10.6 °C53 %1016.9 hPa16.1 kmNW (320°)13 km/h27.8 km/hClear
2:53 PM-2.2 °C-10.6 °C53 %1016.6 hPa16.1 kmNW (320°)14.8 km/h29.6 km/hClear
3:53 PM-1.7 °C-11.1 °C49 %1016.3 hPa16.1 kmWNW (300°)20.4 km/h33.3 km/hClear
4:53 PM-1.7 °C-11.1 °C49 %1016.9 hPa16.1 kmNW (310°)14.8 km/h27.8 km/hClear
5:53 PM-2.2 °C-11.7 °C49 %1017.3 hPa16.1 kmNW (320°)16.7 km/hScattered Clouds
6:53 PM-3.3 °C-11.1 °C55 %1017.9 hPa16.1 kmNNW (340°)7.4 km/hClear
7:53 PM-7.8 °C-11.1 °C78 %1018.3 hPa16.1 kmCalmClear
8:53 PM-7.2 °C-10 °C81 %1018.6 hPa16.1 kmCalmClear
9:53 PM-8.9 °C-11.1 °C84 %1018.6 hPa16.1 kmCalmClear
10:53 PM-11.1 °C-12.8 °C88 %1018.6 hPa16.1 kmCalmClear
11:53 PM-10.6 °C-11.7 °C92 %1018.6 hPa16.1 kmCalmClear
Hourly data recorded from KARB, located 0 kilometers away from Ann Arbor, Michigan







STORIES FROM OUR PARTNERS